Weather History for Lee's Summit, MO

Change the Weather History Date:

Monday, December 24, 2012

  Actual Average (KMKC) Record (KMKC)
Temperature  
Mean Temperature 22 °F -  
Max Temperature 25 °F 38 °F 50 °F (2011)
Min Temperature 19 °F 21 °F 3 °F (2000)
Degree Days  
Heating Degree Days 43    
Moisture  
Dew Point 15 °F    
Average Humidity 78    
Maximum Humidity 88    
Minimum Humidity 62    
Precipitation  
Precipitation 0.00 in - - ()
Sea Level Pressure  
Sea Level Pressure 30.08 in    
Wind  
Wind Speed 10 mph (NNW)    
Max Wind Speed 14 mph    
Max Gust Speed 21 mph    
Visibility 7 miles    
Events      
Averages and records for this station are not official NWS values.
T = Trace of Precipitation, MM = Missing Value Source: NWS Daily Summary

Daily Weather History Graph

Daily Weather History Graph

Search for Another Location

Airport:

Trip Planner

Search our weather history database for the weather conditions in past years. The results will help you decide how hot, cold, wet, or windy it might be!

Date:

Astronomy

Dec. 24, 2012 Rise Set
Actual Time 7:34 AM CST 5:00 PM CST
Civil Twilight 7:04 AM CST 5:30 PM CST
Nautical Twilight 6:30 AM CST 6:04 PM CST
Astronomical Twilight 5:58 AM CST 6:36 PM CST
Moon 2:27 PM CST (12/24) 4:14 AM CST (12/24)
Length of Visible Light 10h 26m
Length of Day
9h 26m
Waxing Gibbous, 88% of the Moon is Illuminated
Dec 24
Waxing Gibbous
Dec 28
Full
Jan 4
Last Quarter
Jan 11
New
Jan 18
First Quarter

Hourly Weather History & Observations

Time (CST) Temp. Windchill Dew Point Humidity Pressure Visibility Wind Dir Wind Speed Gust Speed Precip Events Conditions
12:53 AM 24.1 °F 16.0 °F 19.0 °F 81% 29.96 in 7.0 mi NW 6.9 mph - N/A   Clear
1:53 AM 24.1 °F 14.4 °F 19.0 °F 81% 29.99 in 6.0 mi NW 9.2 mph - N/A   Haze
2:53 AM 23.0 °F 11.1 °F 18.0 °F 81% 29.99 in 6.0 mi NNW 12.7 mph - N/A   Haze
3:53 AM 21.0 °F 12.4 °F 17.1 °F 85% 29.99 in 5.0 mi NNW 6.9 mph - N/A   Clear
4:53 AM 19.9 °F 9.3 °F 16.0 °F 85% 30.01 in 5.0 mi NW 9.2 mph - N/A   Partly Cloudy
5:53 AM 19.0 °F 8.2 °F 15.1 °F 85% 30.05 in 6.0 mi NW 9.2 mph - N/A   Scattered Clouds
6:05 AM 19.4 °F 6.6 °F 15.8 °F 86% 30.01 in 5.0 mi WNW 12.7 mph - N/A   Mostly Cloudy
6:20 AM 19.4 °F 7.9 °F 15.8 °F 86% 30.01 in 5.0 mi NW 10.4 mph - N/A   Overcast
6:53 AM 19.0 °F 7.5 °F 15.1 °F 85% 30.06 in 5.0 mi NW 10.4 mph - N/A   Overcast
7:53 AM 19.0 °F 6.8 °F 15.1 °F 85% 30.08 in 3.0 mi NNW 11.5 mph - N/A   Overcast
8:01 AM 19.4 °F 7.9 °F 15.8 °F 86% 30.04 in 2.5 mi NNW 10.4 mph - N/A   Overcast
8:53 AM 19.0 °F 5.6 °F 16.0 °F 88% 30.09 in 2.5 mi NNW 13.8 mph 20.7 mph N/A   Overcast
9:18 AM 19.4 °F 6.0 °F 15.8 °F 86% 30.05 in 3.0 mi NW 13.8 mph - N/A   Overcast
9:53 AM 21.0 °F 8.6 °F 16.0 °F 81% 30.12 in 4.0 mi NW 12.7 mph - N/A   Haze
10:53 AM 21.0 °F 8.6 °F 16.0 °F 81% 30.12 in 4.0 mi NW 12.7 mph - N/A   Haze
11:02 AM 21.2 °F 10.1 °F 15.8 °F 80% 30.08 in 4.0 mi NNW 10.4 mph - N/A   Haze
11:53 AM 23.0 °F 14.7 °F 15.1 °F 72% 30.09 in 6.0 mi North 6.9 mph - N/A   Haze
12:13 PM 23.0 °F 15.8 °F 15.8 °F 74% 30.04 in 7.0 mi NNW 5.8 mph - N/A   Scattered Clouds
12:53 PM 25.0 °F 14.8 °F 14.0 °F 63% 30.09 in 10.0 mi NW 10.4 mph 17.3 mph N/A   Clear
1:53 PM 24.1 °F 13.7 °F 12.9 °F 62% 30.09 in 10.0 mi NW 10.4 mph - N/A   Clear
2:53 PM 23.0 °F 11.1 °F 12.9 °F 65% 30.11 in 10.0 mi NNW 12.7 mph - N/A   Clear
3:53 PM 21.9 °F 9.8 °F 12.9 °F 68% 30.13 in 10.0 mi North 12.7 mph - N/A   Clear
4:53 PM 19.9 °F 8.6 °F 12.0 °F 71% 30.15 in 10.0 mi North 10.4 mph - N/A   Scattered Clouds
5:53 PM 19.0 °F 9.0 °F 12.0 °F 74% 30.16 in 10.0 mi North 8.1 mph - N/A   Clear
6:53 PM 19.0 °F 10.0 °F 12.0 °F 74% 30.15 in 10.0 mi NNE 6.9 mph - N/A   Clear
7:53 PM 19.0 °F 7.5 °F 12.0 °F 74% 30.14 in 10.0 mi NNE 10.4 mph - N/A   Clear
8:53 PM 19.9 °F 10.1 °F 12.0 °F 71% 30.17 in 10.0 mi NNE 8.1 mph - N/A   Clear
9:53 PM 19.9 °F 7.3 °F 12.0 °F 71% 30.18 in 10.0 mi NNE 12.7 mph - N/A   Clear
10:53 PM 19.0 °F 6.8 °F 12.0 °F 74% 30.19 in 10.0 mi NE 11.5 mph - N/A   Clear
11:53 PM 19.0 °F 6.1 °F 12.0 °F 74% 30.19 in 10.0 mi NNE 12.7 mph - N/A   Clear